User: anonymous   Login
Location: Unspecified
(0.0000°N, 0.0000°E)
Time: 19:52:18
(UTC+00:00)
Language:

Envisat - Orbit

View from above orbital plane
View from above orbital plane
View from above satellite
View from above satellite

Ground track
Ground track

The orbit data is extracted from the following two-line orbital elements,

1 27386U 02009A   18115.57870906  .00000003  00000-0  14663-4 0  9992
2 27386  98.1899 152.1034 0001401  90.6837  65.3666 14.37920432845966
Epoch (UTC): 25 April 2018 13:53:20
Eccentricity: 0.0001401
inclination: 98.1899°
perigee height: 764 km
apogee height: 766 km
right ascension of ascending node: 152.1034°
argument of perigee: 90.6837°
revolutions per day: 14.37920432
mean anomaly at epoch: 65.3666°
orbit number at epoch: 84596

The dashed part of the orbit path shows where the satellite is in the earth's shadow,  

DLR